TimeMST,TemperatureF,Dew PointF,Humidity,Sea Level PressureIn,VisibilityMPH,Wind Direction,Wind SpeedMPH,Gust SpeedMPH,PrecipitationIn,Events,Conditions,WindDirDegrees,DateUTC
12:53 AM,27.0,10.0,49,30.28,-9999.0,SSW,11.5,-,N/A,,Clear,200,2013-01-19 07:53:00
1:53 AM,24.1,10.0,55,30.31,-9999.0,South,13.8,-,N/A,,Clear,190,2013-01-19 08:53:00
2:53 AM,23.0,8.1,53,30.33,-9999.0,SSW,18.4,-,N/A,,Clear,200,2013-01-19 09:53:00
3:53 AM,21.9,8.1,55,30.34,-9999.0,South,15.0,-,N/A,,Clear,190,2013-01-19 10:53:00
4:53 AM,19.9,7.0,57,30.36,-9999.0,SSW,15.0,-,N/A,,Clear,200,2013-01-19 11:53:00
5:53 AM,19.9,8.1,60,30.36,-9999.0,SSW,16.1,-,N/A,,Clear,200,2013-01-19 12:53:00
6:53 AM,18.0,7.0,62,30.40,-9999.0,South,16.1,20.7,N/A,,Clear,190,2013-01-19 13:53:00
7:53 AM,19.0,7.0,59,30.42,-9999.0,South,17.3,-,N/A,,Clear,190,2013-01-19 14:53:00
8:53 AM,19.9,8.1,60,30.44,-9999.0,SSW,12.7,-,N/A,,Clear,200,2013-01-19 15:53:00
9:53 AM,23.0,9.0,55,30.45,-9999.0,SSE,9.2,19.6,N/A,,Clear,160,2013-01-19 16:53:00
10:53 AM,25.0,12.0,58,30.44,-9999.0,SSW,18.4,-,N/A,,Clear,210,2013-01-19 17:53:00
11:53 AM,27.0,12.0,53,30.40,-9999.0,SSW,20.7,-,N/A,,Clear,210,2013-01-19 18:53:00
12:53 PM,27.0,12.9,56,30.39,-9999.0,South,16.1,-,N/A,,Clear,190,2013-01-19 19:53:00
1:53 PM,30.9,17.1,57,30.36,-9999.0,SSW,15.0,-,N/A,,Clear,210,2013-01-19 20:53:00
2:53 PM,34.0,17.1,50,30.34,-9999.0,SSW,13.8,-,N/A,,Clear,210,2013-01-19 21:53:00
3:53 PM,34.0,17.1,50,30.34,-9999.0,West,3.5,-,N/A,,Clear,270,2013-01-19 22:53:00
4:53 PM,32.0,17.1,54,30.35,-9999.0,SW,23.0,-,N/A,,Clear,220,2013-01-19 23:53:00
5:53 PM,30.0,16.0,56,30.36,-9999.0,SW,25.3,-,N/A,,Clear,220,2013-01-20 00:53:00
6:53 PM,25.0,14.0,63,30.39,-9999.0,SSW,17.3,-,N/A,,Clear,200,2013-01-20 01:53:00
7:53 PM,27.0,14.0,58,30.39,-9999.0,SW,19.6,29.9,N/A,,Clear,230,2013-01-20 02:53:00
8:53 PM,25.0,12.9,60,30.40,-9999.0,SW,20.7,-,N/A,,Clear,220,2013-01-20 03:53:00
9:53 PM,23.0,12.9,65,30.42,-9999.0,South,19.6,-,N/A,,Clear,180,2013-01-20 04:53:00
10:53 PM,26.1,12.9,58,30.40,-9999.0,SSW,18.4,-,N/A,,Clear,200,2013-01-20 05:53:00
11:53 PM,23.0,12.0,63,30.42,-9999.0,SSW,16.1,-,N/A,,Clear,200,2013-01-20 06:53:00